This is the latest recevied weather packets stored in our database for station/object N2XP-2. If no packets are shown the sender has not sent any weather packets the latest 10 day(s).
| Time | Temp. | Humidity | Pressure | Rain* | Wind** | Luminosity | Snow |
|---|---|---|---|---|---|---|---|
| 1777637171 | 13.33° C | 75% | 1013.7 hPa | 0 mm | 0.45 m/s, 338° | - | - |
| 1777636867 | 13.33° C | 75% | 1013.7 hPa | 0 mm | 0.45 m/s, 332° | - | - |
| 1777636568 | 13.33° C | 75% | 1013.8 hPa | 0 mm | 0 m/s | - | - |
| 1777636269 | 13.89° C | 75% | 1013.7 hPa | 0 mm | 0.89 m/s, 315° | - | - |
| 1777635967 | 13.89° C | 76% | 1013.6 hPa | 0 mm | 0.89 m/s, 352° | - | - |
| 1777635949 | 12.22° C | 84% | 1013.4 hPa | 0 mm | 0 m/s | - | - |
| 1777635942 | 11.67° C | 87% | 1013.3 hPa | 0 mm | 0 m/s | - | - |
| 1777635662 | 13.89° C | 77% | 1013.5 hPa | 0 mm | 0.45 m/s, 283° | - | - |
| 1777635363 | 13.33° C | 79% | 1013.4 hPa | 0 mm | 0.89 m/s, 343° | - | - |
| 1777635060 | 13.33° C | 80% | 1013.5 hPa | 0 mm | 0.89 m/s, 321° | - | - |
| 1777634761 | 12.78° C | 83% | 1013.5 hPa | 0 mm | 0.45 m/s, 315° | - | - |
| 1777634591 | 12.22° C | 84% | 1013.4 hPa | 0 mm | 0 m/s | - | - |
| 1777634462 | 12.22° C | 84% | 1013.4 hPa | 0 mm | 0 m/s | - | - |
| 1777634159 | 11.67° C | 87% | 1013.3 hPa | 0 mm | 0 m/s | - | - |
| 1777634027 | 10° C | 93% | 1013.3 hPa | 0 mm | 0 m/s | - | - |
| 1777634023 | 9.44° C | 94% | 1013.2 hPa | 0 mm | 0 m/s | - | - |
| 1777633860 | 11.67° C | 89% | 1013.3 hPa | 0 mm | 0 m/s | - | - |
| 1777633562 | 11.11° C | 91% | 1013.3 hPa | 0 mm | 0 m/s | - | - |
| 1777633258 | 10.56° C | 92% | 1013.2 hPa | 0 mm | 0 m/s | - | - |
| 1777632960 | 10° C | 93% | 1013.3 hPa | 0 mm | 0 m/s | - | - |
| 1777632661 | 10° C | 93% | 1013.3 hPa | 0 mm | 0 m/s | - | - |
| 1777632358 | 9.44° C | 94% | 1013.2 hPa | 0 mm | 0 m/s | - | - |
| 1777632099 | 7.78° C | 96% | 1012.9 hPa | 0 mm | 0 m/s | - | - |
| 1777632059 | 9.44° C | 95% | 1013 hPa | 0 mm | 0 m/s | - | - |
| 1777631761 | 9.44° C | 96% | 1013 hPa | 0 mm | 0 m/s | - | - |
* Rain latest hour (hover to see other rain measurements)
** Current wind speed in m/s (hover to see current wind gust speed)